CAPE
190 53 0 0 0 0 260 6 245 169 56 128 50 177 405 187 806 820 856 756 819 1297 1248 459 374 309 704 283 95 410 390 84 0 0 0 88 705 843 1123 1009 894 1156 1273 1403 1590 1833 2086 2276 2411 2883 2989 2918 2963 3016 3116 3122 3168 3345 3321 3311 3121 3031 2933 2866 2837 2847 2888 2782 3082 3226 3128 3194 3182 3046 2744 2829 3161 3019 2731 2743 2597 2650 2470 2279 2159 2255 2300 2282 2311 2408 2689 2748 2560 2274 2333 2048 2133
107 34 0 0 0 175 213 361 83 158 85 22 85 439 653 805 724 612 798 690 1233 1173 569 630 827 884 838 368 285 197 212 490 645 400 299 599 777 1049 1236 991 1022 1231 1303 1420 1650 1921 1996 2180 2268 2993 2870 2640 2900 3016 3163 3218 3159 3240 3241 3225 3135 3080 2950 2745 2809 2756 2910 3086 3191 3090 3142 3141 3023 2950 2915 2935 2901 2882 2630 2674 2329 2485 2595 2562 2493 2527 2278 2320 2453 2609 2468 2487 2631 2130 2356 1931 1736
49 4 0 0 0 224 70 363 268 78 50 11 50 34 581 573 796 656 803 1107 1189 853 721 813 907 1144 988 978 292 674 135 593 685 363 524 680 803 1013 1207 948 1096 1313 1429 1534 1758 1895 1835 1965 2416 2970 2716 2896 2946 3092 3093 3050 2999 3081 3209 3143 3020 2954 2926 2822 2875 2902 3039 3113 3050 3158 2993 2820 2634 2669 2729 2818 2681 2370 2207 2320 2292 2524 2538 2697 2462 2608 2971 2721 2441 2537 2766 2711 2615 2196 2102 2089 2058
48 2 0 0 30 215 267 219 164 200 105 50 110 750 806 798 794 596 910 1011 712 484 479 450 396 580 1007 437 410 511 239 288 345 430 521 656 583 1053 1159 1076 1346 1415 1569 1644 1800 1864 1765 2042 2464 2994 2941 2937 2952 3000 2988 2971 2970 3053 3046 2926 2813 2880 2672 2812 2872 2989 2987 2975 3012 2884 2678 2553 2510 2337 3011 2767 2224 2222 2362 2358 2334 2425 2346 2542 2533 2461 2646 2652 2360 2491 2157 2357 2065 2100 2027 1952 1889
26 52 2 29 102 154 22 272 322 278 285 76 239 620 699 861 866 893 1028 1181 1258 925 1264 888 304 416 914 471 443 716 288 420 408 423 508 822 898 1112 1187 1341 1400 1528 1617 1776 1916 1894 1852 2064 2530 2944 2951 2934 2918 2902 2936 2916 2899 2944 2870 2852 2885 2890 2810 2866 2977 2967 2859 2910 2759 2737 2722 2444 2270 2362 2861 2573 2491 2360 2312 2533 2493 2395 2552 2400 2366 2773 2870 2712 2698 2635 2359 2417 2221 2021 2108 1988 1964
0 4 4 623 326 197 276 22 69 212 336 418 425 871 842 850 943 941 675 924 964 805 1228 1036 412 548 639 562 506 498 273 275 340 471 579 834 981 1155 1331 1506 1460 1562 1665 1922 2026 1894 1840 2296 2785 2960 2974 2837 2850 2801 2888 2870 2800 2736 2741 2763 2890 2914 2839 2969 2868 2879 2889 2817 2782 2641 2638 2234 2506 2558 2510 2410 2308 2312 2287 2212 2493 2287 2530 2730 2650 2589 2660 2778 2615 2484 2594 2590 2217 2300 2143 2026 2084
0 65 389 617 545 370 225 109 12 22 330 257 575 815 874 928 1069 593 606 593 558 656 662 725 422 441 512 492 513 371 641 446 486 447 740 880 1048 1277 1388 1392 1481 1635 1843 2005 2108 2094 2131 2721 2836 2860 2776 2644 2760 2869 2840 2771 2713 2690 2686 2836 2917 2877 2737 2782 2790 2795 2755 2690 2563 2616 2495 2506 2496 2398 2597 2387 2485 2437 2361 2358 2188 2417 2137 2407 2702 2614 2475 2436 2540 2422 2433 2480 2387 2241 2068 2063 2182
37 770 432 352 198 238 166 204 164 450 338 390 760 751 911 1013 672 660 640 390 372 593 844 475 525 577 469 474 416 587 764 776 674 797 856 916 1167 1329 1373 1425 1545 1729 1896 2045 2242 2473 2886 2736 2582 2544 2604 2548 2676 2746 2717 2678 2649 2557 2713 2824 2725 2533 2665 2671 2585 2745 2738 2632 2535 2552 2596 2536 2143 2353 2167 2400 2588 2404 2215 2190 2330 2536 2651 2440 2651 2639 1902 2240 2201 2134 1999 1881 1923 2055 2099 2022 1794
226 769 602 417 302 386 291 194 79 301 449 607 788 907 1146 1068 1125 778 1289 930 678 717 663 462 428 491 595 572 681 786 711 779 799 903 835 1047 1253 1331 1414 1456 1600 1749 1887 2037 2345 2581 2617 2618 2601 2547 2578 2547 2587 2617 2626 2574 2582 2556 2670 2625 2758 2594 2268 2260 2569 2591 2670 2550 2438 2211 2515 2150 2266 2318 2391 2509 2365 2388 2200 2293 2586 2619 2611 2420 2553 2516 2408 2247 2201 1938 2321 2394 2181 2131 2005 1960 1948
335 586 422 283 492 197 37 94 246 187 81 804 952 1029 1158 1285 1420 1358 796 990 734 646 1018 495 492 566 633 503 563 826 756 807 779 784 922 1106 1248 1306 1385 1477 1623 1759 1871 2075 2404 2484 2528 2557 2550 2564 2552 2587 2612 2717 2631 2642 2603 2545 2683 2674 2565 2611 2225 2526 2552 2619 2649 2190 2187 2090 2163 2157 2050 2392 2347 2274 2474 2317 2216 2538 2533 2572 2396 2562 2696 2763 2691 2616 2251 2022 2046 2033 1964 1990 2049 2006 1893
626 657 548 362 176 33 17 255 397 134 635 814 1042 958 1267 1483 1250 1327 1467 835 607 621 360 430 462 492 439 596 713 813 761 700 736 816 935 1119 1153 1226 1347 1479 1629 1739 1858 2103 2339 2417 2359 2347 2464 2189 2512 2609 2630 2741 2572 2480 2542 2674 2711 2348 2438 2427 2374 2533 2704 2577 2524 2003 2123 2028 2120 2260 2080 2140 2410 2271 2292 2150 2412 2529 2631 2588 2488 2598 2786 2718 2674 2560 2358 2201 1899 1992 1915 1962 1847 1811 1784
532 309 328 266 109 156 259 76 398 415 809 812 916 1060 1022 1335 989 799 615 654 745 384 547 602 527 474 476 434 479 756 661 646 701 783 894 930 1015 1130 1265 1456 1635 1762 1930 2150 2283 2313 2187 2173 2322 2378 2654 2715 2713 2508 2388 2500 2677 2408 2385 2542 2242 2575 2282 2648 2709 2621 2568 2124 2114 2068 2144 2185 2173 2204 2160 2215 2197 2355 2342 2659 2547 2469 2590 2712 2688 2678 2372 2596 2422 2274 2163 2114 1876 1735 1946 1913 1800
443 465 352 205 181 278 405 334 100 215 670 1050 1061 1354 1595 1230 990 650 797 685 708 594 500 969 434 385 299 515 795 595 627 584 658 696 728 792 894 1009 1188 1428 1677 1912 2064 2140 2254 2249 2179 2032 2239 2455 2643 2733 2580 2369 2467 2662 2187 2466 2703 2709 2651 2591 2338 2563 2466 2683 2617 2387 2138 2139 2155 1996 1961 2177 2212 2122 2440 2221 2187 2596 2485 2580 2677 2660 2689 2536 2252 2387 2527 2336 2170 1994 1614 1966 2003 1749 1862
490 812 372 338 150 409 524 374 572 695 869 1046 1378 1367 1441 1618 1176 975 736 678 691 1015 1065 517 510 503 538 477 607 539 519 524 545 570 579 687 798 931 1141 1420 1768 1953 2003 2094 2153 2186 2133 2090 2126 2222 2281 2355 2385 2361 2493 2376 2490 2585 2478 2397 2514 2367 2081 2520 2623 2398 2420 2274 2084 2241 2195 2038 2078 2112 2226 2224 2408 2320 2342 2302 2540 2772 2613 2698 2571 2607 2254 2384 2554 2440 2189 2236 1932 2100 2027 1879 1787
493 862 632 391 402 321 422 394 534 788 784 1238 1204 1501 1528 1362 1676 1030 1010 669 907 1521 468 434 438 385 370 533 406 450 521 482 451 455 601 712 794 916 1140 1458 1700 1835 1892 2014 2092 2124 2083 2047 2188 2158 1985 2097 2089 2125 2168 2474 2570 2497 2694 2575 2627 2480 2582 2692 2570 2319 2312 2224 2318 2205 2094 2055 1943 1957 2162 2060 2241 2624 2522 2172 2391 2670 2690 2616 2646 2583 2226 2322 2226 2221 2300 2245 1983 2040 1664 1649 1573
398 1018 725 370 318 82 385 461 758 708 840 1471 1074 1646 1529 1346 2065 1256 1217 1999 928 1095 1220 622 368 683 422 581 502 515 515 432 421 550 616 693 801 976 1181 1427 1578 1651 1766 1916 2023 2030 1974 2014 2123 2015 1997 2087 2037 1981 1983 2323 2520 2442 2405 2591 2604 2261 2564 2667 2300 2339 2303 2164 2260 2622 2258 2220 1855 1920 2127 2478 2165 2240 2563 2294 2363 2592 2500 2430 2574 2573 2498 2215 2174 2374 2393 2293 2106 2085 2012 1881 1912
927 536 532 367 74 59 246 414 676 466 1059 1711 985 1385 1072 1244 1529 1250 1663 1947 760 1004 1034 886 690 802 497 574 538 550 471 402 466 525 608 689 797 931 1120 1302 1441 1522 1680 1816 1933 1963 1945 1938 2026 1951 2019 2096 2109 1989 1832 2139 2520 2541 2370 2194 2352 2416 2638 2538 2278 1941 1981 2386 2505 2167 2887 2210 1976 2292 2409 2451 2426 2542 2367 2375 2373 2606 2534 2532 2578 2605 2512 2628 2347 2185 2250 2433 2295 2206 2094 2222 2018
1305 699 435 110 28 22 94 321 618 834 898 1343 1080 1520 1275 1136 1421 1314 2110 956 1031 884 698 572 470 506 512 492 556 503 400 425 499 553 586 650 705 795 896 1141 1229 1318 1522 1648 1840 1903 1879 1899 1930 1947 1994 2016 1983 1869 1772 1851 2291 2269 2096 2137 2350 2374 2241 2314 2526 2606 2308 2194 2192 2448 2537 2494 2060 2146 2555 2845 2985 2892 2383 2370 2334 2738 2707 2548 2544 2577 2500 2361 2229 2013 2205 2382 2266 2750 2800 2320 2616
529 587 515 246 0 6 368 566 611 866 946 1267 1095 1385 1300 1086 1504 1106 953 848 543 520 584 474 437 417 423 406 434 395 376 487 510 531 564 573 618 672 764 941 1029 1195 1348 1589 1794 1859 1956 1958 1935 1930 1947 1953 1885 1781 1710 1893 1976 1969 1983 1939 2099 2364 2412 2556 2340 2217 2079 2065 2129 2303 2220 2057 2090 2158 2485 2648 2913 2382 2433 2108 2400 2238 2776 2651 2603 2587 2553 2584 2237 2052 2014 2229 2643 2533 2058 2194 2238
442 505 548 408 260 2 245 827 1003 871 1187 1020 991 1241 1204 1279 1480 1214 767 748 540 470 497 420 438 445 451 350 284 300 472 496 494 495 514 532 569 597 698 804 890 1016 1241 1436 1692 1890 2028 1949 1962 1910 1968 1931 1853 1793 1724 1692 1695 1742 1846 1876 1833 1937 1951 2029 2043 1986 2055 2088 2047 2022 1973 1972 1978 2282 2376 2510 2875 1869 2488 2296 2050 2151 2250 2673 3084 2854 2633 2334 2634 2239 2324 2832 2687 2371 2014 2144 2138
284 377 311 200 78 70 619 967 1056 1174 1246 1147 962 1533 1318 1438 1486 1591 820 521 546 443 444 435 432 442 422 294 251 404 493 490 464 445 459 510 520 538 644 696 763 896 1258 1456 1653 1874 1899 1860 1921 1905 1954 1880 1831 1822 1801 1634 1778 1952 2012 2027 1983 1943 1888 1917 1937 1971 2061 2043 1946 1909 1929 1932 2031 2146 2188 2011 1929 1955 1932 2117 2392 2434 2435 2813 2908 2558 2557 2713 2557 2341 2285 2467 2285 2271 2080 1846 1791
190 386 308 265 135 83 378 1084 1230 1215 1220 980 1175 1098 998 1491 1162 1488 636 421 438 470 440 444 387 444 364 247 270 468 488 466 436 409 423 476 490 482 580 648 783 956 1284 1336 1463 1773 1672 1759 1814 1862 1883 1893 1839 1792 1779 1928 1910 2025 2012 1985 1962 1894 1821 1866 1885 1968 2035 1883 1802 1883 1856 1841 1958 2092 2119 2017 1913 2033 1997 2192 2449 2499 2505 2497 2541 2489 2399 2446 2518 2374 2342 2413 2488 2300 1982 1992 2374
0 0 0 57 206 124 621 997 1097 979 982 1057 1092 1198 1334 908 1185 1472 586 590 1221 449 313 416 358 358 292 207 358 502 479 441 402 359 376 430 433 457 535 622 814 930 1205 1261 1540 1578 1535 1715 1755 1760 1817 1844 1785 1737 1754 1888 1892 2002 1955 1911 1821 1846 1808 1796 1885 1942 1965 1733 1647 1948 1721 1757 1901 2058 2070 1916 1869 2019 2135 2219 2306 2394 2263 2209 2290 2242 2255 2273 2174 2271 2313 2276 2400 2415 1994 1919 1933
0 0 0 0 0 17 404 920 1019 875 888 947 972 1077 1078 1241 1142 1642 797 1929 1326 1097 532 409 336 273 207 242 412 498 486 414 346 302 324 391 401 461 510 606 795 892 1152 1217 1376 1402 1535 1520 1695 1692 1736 1741 1718 1690 1719 1748 1839 1864 1900 2172 1759 1796 1790 1775 1841 1795 1636 1580 1586 2024 1825 1718 1905 2022 1910 1804 1842 1908 2086 2207 2215 2237 2221 2236 2274 2261 2359 2234 2235 2281 2296 2267 2221 2337 2144 1790 1892
0 0 0 0 0 0 141 813 1033 881 817 931 909 790 927 918 894 1211 1036 1029 1098 736 429 448 370 294 201 269 470 526 483 388 237 175 228 279 344 466 497 613 777 863 1069 1156 1249 1305 1450 1611 1587 1642 1666 1646 1653 1656 1690 1709 1785 1766 1976 1775 1690 2053 1737 1726 1747 1596 1576 1728 1903 2018 1923 1714 1875 1908 1760 1751 1796 1922 2002 2111 2135 2166 2196 2318 2311 2179 2195 2321 2252 2189 2238 2214 2111 2138 1898 1792 1662
0 0 0 0 0 0 296 857 1085 826 877 877 684 712 848 1052 1064 1014 1018 876 1033 488 457 428 413 365 233 282 500 539 521 432 301 212 202 215 307 456 520 615 743 807 980 1084 1155 1230 1402 1550 1491 1549 1607 1595 1593 1647 1646 1658 1747 1758 1868 1739 1563 2120 1642 1659 1604 1494 1508 1651 1886 1753 1974 1707 1800 1763 1687 1722 1746 1819 1953 2007 1991 2001 2073 2156 2261 2198 1953 1948 2192 2148 2179 2295 2270 2024 1804 1655 1922
0 0 0 0 0 0 655 922 1084 902 966 738 569 925 1073 1128 846 824 991 843 634 506 455 390 419 357 269 291 447 517 535 501 422 307 233 180 254 396 500 586 672 762 914 1011 1084 1189 1418 1452 1456 1513 1556 1495 1547 1588 1626 1593 1643 1726 1840 1766 1591 1758 1535 1572 1623 1598 1464 1564 2116 1604 1748 1756 1674 1632 1653 1699 1737 1773 1930 2078 2041 2032 1982 2075 2120 2103 1921 1945 2011 2095 2257 2391 2247 1883 1975 1679 1871
0 0 0 0 337 106 838 948 1069 936 943 691 671 925 1089 997 703 764 941 689 572 478 532 480 423 327 290 279 399 482 505 521 471 371 269 205 227 364 478 535 610 704 870 942 1005 1118 1321 1376 1405 1456 1485 1446 1489 1542 1596 1539 1536 1638 1790 1769 1610 1737 1551 1456 1506 1644 1810 1538 1965 1692 1620 1711 2062 1643 1678 1711 1742 1782 1857 2068 2164 2136 2124 2109 2238 2080 2026 2377 2337 2379 2444 2439 2112 2039 2322 2230 2246
0 0 0 268 605 765 926 980 1062 851 915 738 767 716 816 841 747 747 899 648 528 450 443 482 402 340 317 280 290 457 491 513 494 433 325 223 231 317 424 476 556 694 820 886 929 1082 1242 1334 1373 1408 1413 1464 1450 1489 1546 1504 1484 1557 1721 1775 1620 1876 1619 1462 1493 1610 1641 1548 1805 2004 1614 1612 2224 1626 1718 1774 2440 1772 1830 1987 2114 2141 2143 2106 2089 2240 2373 2585 2951 2664 2531 2386 2142 1649 1623 1926 2801
0 0 0 259 522 621 832 1078 1028 828 869 695 574 319 21 589 745 905 884 622 510 456 490 502 379 323 338 293 200 435 462 423 512 470 386 258 274 307 362 428 550 684 816 862 912 1060 1191 1277 1372 1360 1340 1357 1416 1431 1487 1465 1449 1506 1687 1757 1818 1890 1672 1504 1573 1557 1688 1611 1786 1941 1662 1702 1931 1568 1719 1835 1860 1831 1851 1928 2040 2079 2084 2008 2205 2228 2308 2464 2615 2332 2292 1942 2728 2162 1538 2020 1852
0 0 0 235 286 180 729 1156 1044 887 819 706 580 300 94 6 628 785 901 598 593 519 473 480 494 376 302 334 130 349 445 486 515 488 415 266 291 320 321 395 565 702 876 869 924 1035 1263 1232 1346 1324 1383 1320 1542 1385 1393 1412 1398 1445 1564 1690 1686 1837 1887 1680 1557 1555 1598 1610 1740 1819 1785 1827 1965 1606 1738 1822 1865 1882 1884 1895 1840 1801 1940 2016 2151 2200 2329 2402 2549 2490 2390 2040 1901 2209 2112 2510 2772
0 0 0 61 101 13 711 1044 993 852 796 711 571 253 234 6 421 762 944 620 591 576 518 504 554 510 361 334 103 246 338 369 472 478 396 264 283 308 338 409 580 720 882 897 910 1027 1168 1202 1324 1265 1331 1268 1336 1333 1318 1359 1322 1376 1485 1687 1681 1691 1868 1850 1686 1584 1556 1498 1640 1780 1788 1971 2206 1718 1728 1852 1888 1862 1808 1694 1362 1632 1781 1940 2022 2178 2525 2477 2510 2488 2646 2416 2210 2201 3106 2239 2143
0 0 0 0 6 50 892 979 1096 765 754 726 596 263 47 90 264 817 927 762 633 619 558 524 624 604 438 311 92 164 298 390 402 422 425 385 255 280 333 440 581 719 883 918 915 1042 1174 1192 1396 1192 1273 1220 1266 1254 1239 1281 1265 1283 1402 1522 1614 1627 1702 1802 1748 1640 1493 1411 1532 1744 1720 1945 2366 1913 1766 1802 1794 1832 1706 1409 1705 1899 1881 1976 1730 2404 2678 2547 2461 2390 2493 3062 2841 2724 2406 1949 1877
0 0 0 0 0 89 838 927 1086 787 781 733 649 494 328 280 440 832 905 828 728 668 612 645 668 666 522 339 342 247 188 328 245 369 386 305 219 250 320 600 575 712 883 940 925 1040 1190 1198 1222 1125 1256 1239 1234 1190 1111 1181 1209 1236 1332 1428 1571 1534 1549 1600 1638 1585 1504 1406 1327 1607 1668 1795 2230 1988 1803 1726 1729 1738 1536 1726 2017 2089 2162 1959 2149 2683 2811 2547 2532 2374 2087 2557 2837 2785 2552 1917 1466
0 0 0 0 0 0 370 804 1039 872 827 753 751 619 526 471 425 788 961 977 766 707 678 729 729 690 544 375 286 301 102 307 155 130 358 217 204 240 323 508 572 698 859 966 951 1026 1169 1202 1192 1064 1194 1268 1251 1190 1027 1048 1155 1213 1269 1352 1439 1450 1378 1330 1352 1418 1471 1464 1295 1257 1508 1586 2383 1830 1923 1799 1678 2056 1995 1956 2132 2212 2444 2248 2487 2811 2739 2781 2801 2484 2345 2396 3044 3045 2758 2253 1475
0 0 0 0 0 0 0 230 822 887 723 702 754 703 636 552 414 684 871 1051 1003 773 741 770 763 694 555 404 333 317 286 310 114 79 99 137 183 244 330 478 570 669 816 960 987 1019 1144 1200 1182 1056 1137 1242 1268 1217 1004 991 1068 1116 1186 1279 1357 1371 1266 1132 1091 1157 1225 1281 1247 1119 1280 1412 1855 1734 1910 1906 1644 2017 1988 2018 2182 2308 2525 2470 2662 2796 2640 2569 2553 2613 2507 3015 2791 2704 3152 2958 2870
0 0 0 0 0 0 0 0 0 866 737 598 609 698 646 532 412 575 815 1008 981 851 775 792 768 705 612 444 351 337 330 278 308 46 61 105 151 235 329 458 565 632 750 924 987 1016 1094 1176 1178 1063 1074 1167 1208 1196 1082 981 989 1035 1096 1188 1248 1292 1295 1214 1061 1016 1044 1100 1182 1117 1292 1419 1502 1731 2118 2038 1790 2432 2078 2012 2149 2400 2513 2574 2652 2630 2612 2551 2347 2433 2533 3550 3433 2566 2447 2771 2438
0 0 0 0 0 0 0 0 0 437 707 692 575 564 613 586 473 461 768 923 1021 946 882 834 796 732 667 544 383 320 340 318 187 14 34 73 136 201 294 401 549 619 707 866 970 1010 1047 1111 1158 1081 1025 1107 1132 1159 1199 1130 1107 1046 1018 1106 1125 1141 1243 1267 1167 1132 1063 1325 1340 1257 1426 1414 1438 1584 2272 2159 2137 2110 2063 2030 2135 2359 2526 2531 2491 2480 2415 2895 2678 2308 2534 2588 2374 2446 2132 2178 1908
0 0 0 0 0 0 0 0 0 55 517 400 504 580 513 502 514 449 726 870 1038 983 934 870 817 753 716 645 478 341 317 315 280 8 19 54 133 177 258 358 489 577 679 828 950 1008 1023 1030 1078 1087 1022 1046 1082 1126 1188 1222 1169 994 927 945 948 961 1080 1202 1176 1092 1329 1440 1484 1475 1572 1468 1505 1571 2141 2522 2212 2097 1976 2014 2147 2204 2482 2622 2610 2234 2142 2170 2368 2508 2605 2604 2288 2314 2856 2777 1850
0 0 0 0 0 0 0 0 0 40 340 159 6 122 302 78 33 366 618 828 958 1010 959 901 815 776 724 676 569 439 375 351 319 156 10 42 240 228 229 304 400 518 612 752 892 995 1013 975 972 1002 998 1004 1028 1057 1136 1195 1114 941 863 709 733 733 734 958 1037 1082 1340 1457 1648 1707 1708 1622 1666 1733 2163 2549 2260 2072 1990 2081 2094 2156 2425 2506 2371 2182 2036 2102 2298 2632 2797 2835 2463 2161 2057 2171 3430
0 0 0 0 0 0 0 0 0 0 0 19 0 0 0 3 80 155 488 774 912 970 955 915 863 799 755 695 616 507 430 410 376 335 1 82 269 253 261 287 341 409 540 655 819 946 975 962 884 878 881 926 950 1006 1091 1119 989 835 792 356 446 593 701 850 854 1084 1344 1626 1742 1846 1878 1866 1928 2027 2404 2570 2468 2001 2035 2104 2128 2199 2343 2338 2372 2200 2034 2029 2218 2597 2869 2897 2673 2176 1961 1940 2030
0 0 0 0 0 0 0 0 0 0 0 0 0 0 0 0 93 208 383 742 859 934 938 904 888 854 794 773 724 614 502 467 450 407 370 328 312 299 312 318 283 350 442 561 735 873 915 930 858 753 712 783 901 990 1065 1043 899 821 742 161 294 504 741 835 904 994 1253 1605 1960 1902 1980 2088 2200 2306 2602 2649 2463 2089 1977 2046 2190 2396 2355 2389 2449 2248 2119 2038 2242 2596 2827 2925 2813 2742 2151 2011 1851
0 0 0 0 0 0 0 0 0 0 0 0 0 0 0 210 283 300 478 742 884 937 958 944 895 867 851 831 799 706 609 524 503 476 425 377 356 335 345 376 374 320 338 441 618 768 828 837 791 640 555 708 845 963 1017 964 836 830 669 161 252 648 721 773 890 936 1159 1423 1784 1903 2031 2179 2352 2484 2711 2788 2584 2300 1962 1981 2215 2494 2492 2373 2891 2339 2392 2418 2394 2662 2801 2887 2969 2915 2426 2213 1997
0 0 0 0 0 0 0 0 0 0 0 0 0 0 0 0 0 480 556 767 940 999 993 946 890 924 918 894 840 776 682 575 529 546 539 490 424 384 384 403 428 373 311 341 504 640 724 745 699 564 544 720 797 923 948 904 864 865 530 56 120 556 582 647 762 939 1093 1484 1662 1883 1977 2186 2405 2551 2719 2822 2830 2539 2311 2160 2200 2479 2492 2489 2977 2816 2624 2616 2580 2651 2959 2922 2948 2892 2456 2235 2218
0 0 0 0 0 0 0 0 0 0 0 0 0 0 3 0 108 429 686 835 967 1051 1024 951 897 879 924 924 872 804 748 659 574 572 593 567 506 460 409 413 442 298 268 295 426 529 616 562 549 527 570 684 782 853 876 873 899 852 271 44 87 194 465 364 626 905 1155 1674 1554 1748 1943 2092 2320 2526 2590 2773 2937 2880 2692 2554 2401 2366 2435 2506 3245 3101 2757 2652 2676 2676 2767 2802 2716 2667 2528 2430 2471
0 0 0 0 0 0 0 0 0 0 0 0 0 0 1 0 13 548 795 879 933 961 994 941 907 886 869 894 875 826 788 711 636 613 617 630 602 545 498 467 462 460 239 298 322 345 458 356 474 517 586 680 766 834 850 854 888 854 646 44 43 31 202 227 590 844 1072 1343 1481 1619 1831 1986 2173 2423 2614 2695 2817 2982 2951 2742 2654 2550 2461 2374 2912 3091 2983 2889 2735 2753 2706 2587 2585 2495 2516 2929 2549
0 0 0 0 0 0 0 0 0 0 0 0 0 0 0 52 0 602 896 998 790 778 859 912 902 854 842 848 851 857 817 776 728 686 666 670 660 603 552 523 508 499 477 278 266 274 289 340 427 508 581 676 778 851 862 890 921 885 738 107 36 14 23 43 448 772 991 1205 1368 1484 1674 1857 1999 2208 2496 2686 2749 2863 2978 2964 2817 2669 2522 2901 3109 3037 3114 3070 2939 2864 2784 2662 2580 2511 2432 2516 3352
0 0 0 0 0 0 0 0 0 0 0 0 0 0 0 0 0 0 652 653 712 658 672 735 858 847 848 844 860 848 822 813 782 744 727 712 690 649 600 569 556 539 518 457 209 205 258 325 408 478 532 626 747 834 860 896 914 872 774 476 66 9 3 4 307 683 989 1150 1275 1360 1508 1702 1852 1980 2203 2492 2655 2685 2789 2915 2894 2813 2766 2717 2881 2992 3068 3015 2963 2836 2666 2542 2617 2580 2475 2485 2417
0 0 0 0 0 0 0 0 0 0 0 0 0 0 0 0 0 0 0 0 0 24 348 525 618 726 800 797 803 817 809 792 791 781 762 740 726 720 667 648 606 584 588 526 454 162 193 292 389 439 495 556 655 760 815 866 874 879 814 734 120 22 0 2 52 439 900 1088 1200 1282 1369 1535 1708 1833 1939 2156 2361 2481 2525 2658 2802 2871 2929 2855 2659 2765 2923 2894 2812 2746 2606 2616 2778 2806 2565 2514 2436
0 0 0 0 0 0 0 0 0 0 0 0 0 0 0 0 0 0 0 0 2 2 0 0 296 544 676 734 755 748 755 770 771 750 760 766 776 758 750 704 674 661 634 564 505 373 161 248 342 406 459 516 583 665 734 777 799 824 811 777 728 119 2 0 0 111 581 1019 1139 1231 1263 1356 1531 1684 1747 1856 2011 2193 2331 2452 2592 2747 2828 2721 2550 2522 2688 2704 2742 2745 2702 2718 2767 2735 2549 2486 2562
0 0 0 0 0 0 0 0 0 0 0 0 0 0 0 0 0 0 0 0 8 2 0 0 2 106 411 656 714 733 714 706 716 736 740 772 785 786 760 743 732 710 681 624 542 478 115 206 282 411 396 413 524 594 662 704 733 753 769 768 749 673 13 0 0 2 173 722 1057 1158 1180 1203 1309 1484 1600 1695 1796 1930 2096 2282 2449 2536 2540 2463 2379 2386 2536 2514 2598 2645 2647 2606 2607 2594 2463 2620 2677
0 0 0 0 0 0 0 0 0 0 0 0 0 0 0 0 0 0 0 0 0 0 0 0 0 192 289 437 697 719 747 730 701 671 720 730 756 762 762 750 750 741 698 636 589 551 214 154 222 319 367 342 414 537 592 633 660 662 703 711 720 611 180 21 0 10 1 266 788 1018 1080 1102 1122 1224 1411 1528 1635 1755 1885 2041 2201 2278 2280 2285 2280 2191 2242 2316 2382 2394 2375 2365 2380 2382 2420 2521 2765
0 0 0 0 0 0 0 0 0 0 0 0 0 0 0 0 0 0 0 0 0 0 0 0 0 296 450 558 652 740 782 769 740 694 675 685 707 727 720 748 754 708 655 655 616 603 566 509 183 242 307 305 356 522 487 498 590 584 603 639 645 650 110 44 0 0 0 1 202 585 882 948 968 1003 1132 1320 1447 1552 1709 1848 1947 2034 2123 2166 2175 2127 2057 2106 2158 2160 2141 2164 2222 2280 2499 2517 2574
0 0 0 0 0 0 0 0 0 0 0 0 0 0 0 0 0 0 0 0 0 0 0 0 0 61 79 473 566 643 779 796 776 737 702 698 704 735 728 748 754 705 706 694 669 628 609 557 515 196 264 279 314 417 492 497 505 534 528 557 585 566 113 62 4 0 0 0 0 57 285 574 821 887 939 1080 1226 1357 1512 2082 1791 1886 1979 2052 2069 2029 2044 2070 2056 2095 2109 2105 2143 2207 2248 2411 2499
0 0 0 0 0 0 0 0 0 0 0 0 0 0 0 0 0 0 0 0 0 0 0 0 119 124 79 0 176 484 633 816 836 830 770 709 725 722 719 746 748 711 737 721 649 650 623 587 552 504 212 492 502 437 466 517 479 432 447 310 232 166 113 91 20 0 0 0 0 0 10 237 436 533 777 869 992 1161 1314 1489 1638 1734 1824 1928 1991 1996 2062 2094 2076 2118 2139 2158 2168 2198 2251 2232 2313
0 0 0 0 0 0 0 0 0 0 0 0 0 0 0 0 0 0 0 0 0 0 0 14 159 217 163 0 0 0 314 700 878 883 853 810 749 699 698 693 705 698 735 744 693 664 614 585 539 135 394 496 510 421 499 516 500 449 430 342 260 194 153 96 49 0 0 0 0 0 0 1 130 478 549 627 772 919 1048 1199 1433 1573 1665 1745 1857 1917 2019 2124 2111 2166 2127 2158 2236 2276 2308 2258 2274
0 0 0 0 0 0 0 0 0 0 0 0 0 0 0 0 0 0 0 0 0 0 0 70 167 281 262 186 0 0 7 393 828 877 879 872 842 814 783 720 732 724 742 735 726 718 708 613 555 281 153 167 548 544 530 503 494 503 506 386 287 170 102 75 53 4 0 0 0 0 0 0 0 120 406 516 621 744 864 1060 1247 1499 1581 1660 1726 1812 1909 2100 2132 2162 2104 2153 2245 2313 2360 2311 2190
0 0 0 0 0 0 0 0 0 0 0 0 0 0 0 0 0 0 0 0 0 0 0 20 159 292 358 276 0 0 0 386 661 859 874 847 848 839 813 775 764 772 729 708 732 702 741 709 615 564 550 557 566 562 564 533 533 514 505 462 318 165 103 58 43 11 1 0 0 0 0 0 0 0 110 382 555 643 731 850 1071 1250 1472 1568 1623 1683 1739 1953 2124 2139 2170 2141 2201 2254 2307 2300 2213
Wind_Speed
4 nan nan nan nan nan 7 nan 5 6 nan 8 nan 3 8 11 12 11 13 13 10 11 8 3 1 3 6 7 nan 4 8 nan nan nan nan nan 9 8 8 8 7 7 7 7 7 7 7 8 9 10 9 8 8 8 7 6 5 4 4 3 2 1 1 1 1 1 1 1 1 2 1 1 2 2 2 4 4 5 6 6 6 5 5 4 5 5 5 6 6 6 8 8 8 8 13 7 4
3 nan nan nan nan 4 6 5 nan 4 nan nan nan 6 9 11 12 11 12 13 11 7 7 5 4 2 2 5 6 6 3 5 5 5 3 5 5 4 7 8 10 9 7 8 7 5 5 6 8 9 9 9 8 7 6 5 4 3 3 2 1 2 2 2 1 0 1 1 2 2 2 2 2 2 3 5 5 6 7 7 7 6 6 5 3 4 6 6 6 6 5 7 8 11 14 9 3
nan nan nan nan nan 5 nan 6 6 nan nan nan nan nan 9 12 11 11 13 13 7 5 5 5 4 5 4 5 4 5 7 3 1 5 4 9 6 8 7 8 8 8 7 7 6 5 5 7 8 9 10 9 7 6 5 4 3 3 1 0 1 2 2 1 0 0 1 1 2 2 2 3 4 4 4 6 6 7 8 8 6 5 5 5 4 5 6 6 6 6 6 7 9 11 15 11 4
nan nan nan nan nan 4 6 5 6 9 11 nan 10 9 13 13 11 10 11 8 6 3 4 2 3 7 6 3 6 2 2 2 4 7 6 10 8 7 8 8 8 6 5 6 6 6 6 7 9 9 10 9 7 6 4 4 3 3 2 2 2 1 1 2 1 0 1 2 2 2 3 4 4 4 6 6 7 6 8 8 6 5 5 4 2 4 7 8 9 8 8 8 7 10 14 13 9
nan nan nan nan 6 4 nan 4 5 9 10 nan 11 14 17 14 10 8 10 12 10 8 7 4 4 7 5 4 6 5 8 4 7 7 4 4 4 7 7 7 7 6 6 6 6 6 6 9 9 9 9 8 7 6 5 4 4 3 3 3 3 3 3 2 1 1 1 2 2 2 3 4 5 6 4 7 8 7 7 7 6 5 4 5 4 4 6 7 7 8 9 9 10 11 14 14 11
nan nan nan 4 4 4 4 nan nan 10 8 5 12 14 16 14 9 9 9 9 9 10 9 4 3 4 3 5 5 3 7 8 9 6 6 4 7 7 7 7 6 5 5 5 5 6 6 9 9 8 7 7 7 7 6 5 5 4 4 4 4 4 3 3 1 1 2 3 3 3 2 3 4 5 5 4 5 6 7 7 6 4 3 3 4 4 5 6 7 8 8 8 10 12 14 14 10
nan nan 3 4 4 4 5 5 nan nan 5 5 10 14 14 14 9 6 6 8 12 8 11 2 4 3 2 3 1 3 7 5 6 6 5 7 6 6 7 7 6 5 4 4 5 5 7 9 8 7 7 7 7 7 7 6 5 5 5 5 5 5 4 3 3 3 4 4 3 2 2 3 4 4 4 4 4 5 6 7 6 4 5 5 3 3 6 6 5 6 8 5 7 9 12 11 10
nan 2 4 3 3 4 5 5 7 6 5 7 10 15 14 11 8 7 6 9 7 8 5 2 4 2 2 5 4 5 4 5 2 3 5 7 6 7 7 7 6 5 4 4 4 4 6 8 8 8 7 8 7 7 7 6 6 6 6 6 5 5 5 4 5 4 4 3 3 2 2 3 5 2 3 3 3 3 3 3 4 5 3 3 3 3 3 7 5 6 7 5 4 7 9 7 5
1 2 2 3 3 5 3 5 nan 4 5 7 9 18 15 13 13 9 10 10 8 8 4 3 5 0 3 1 4 4 3 3 3 5 6 8 6 8 6 7 8 6 5 2 3 3 4 8 9 8 6 6 7 7 7 7 7 7 6 6 5 5 5 6 5 4 3 3 3 2 3 3 4 2 2 2 2 3 2 2 3 2 2 2 2 1 1 4 7 7 6 2 2 4 8 10 8
1 1 2 2 3 3 nan nan 4 1 nan 6 9 16 15 15 14 12 5 7 7 4 8 8 4 2 5 3 3 4 5 6 7 5 4 6 6 6 5 6 6 7 6 3 2 3 5 8 9 8 8 8 7 8 8 8 7 7 6 6 6 6 6 5 3 3 3 2 2 2 4 4 1 2 2 3 2 1 2 3 2 2 1 1 0 0 1 1 3 7 7 1 3 2 5 6 8
2 1 2 1 5 nan nan 8 3 1 4 6 12 20 18 16 12 12 12 6 6 6 5 3 5 3 3 1 5 4 6 8 10 9 6 6 5 6 4 4 5 5 6 4 1 3 3 3 9 10 10 8 7 7 8 8 8 7 6 6 6 5 4 3 3 3 2 1 1 2 4 3 3 4 5 4 5 4 3 2 2 1 1 1 2 2 2 1 1 3 7 6 2 2 2 4 5
2 2 1 1 3 7 10 nan 3 1 4 6 13 18 18 15 13 11 6 4 8 6 5 7 2 2 2 2 3 5 6 6 8 7 6 4 4 5 3 4 3 3 3 2 1 2 3 2 5 7 7 8 7 7 8 8 8 8 7 6 5 5 4 3 3 3 2 1 0 2 2 1 3 5 7 6 7 4 3 3 2 1 2 3 4 3 2 3 2 1 5 8 7 3 3 2 1
2 2 2 1 3 7 10 10 6 2 8 7 8 15 16 13 13 8 10 9 8 4 4 7 6 5 1 1 2 3 6 5 7 9 7 3 4 4 2 2 3 2 2 0 1 2 2 3 4 5 5 7 7 7 8 8 8 7 6 5 5 5 4 4 3 3 3 3 2 1 5 4 5 6 9 7 3 3 3 3 2 2 3 4 4 3 3 4 4 2 2 6 9 7 4 2 5
2 1 3 4 3 6 9 9 8 8 6 5 9 11 15 14 12 10 7 7 6 8 8 3 3 2 5 7 2 3 4 6 7 8 4 3 3 2 2 2 2 2 1 1 2 2 3 4 4 5 5 5 5 6 7 8 7 6 6 5 5 5 4 4 4 4 5 5 4 4 3 7 8 8 7 6 4 5 3 3 3 3 4 4 4 3 2 4 4 4 2 3 7 11 12 8 7
3 4 4 3 6 4 7 6 7 6 3 5 7 9 13 15 13 11 10 2 9 9 4 7 3 3 6 8 7 6 6 7 6 6 5 2 1 1 1 2 1 2 1 1 3 2 3 4 4 5 5 5 5 7 10 7 6 6 6 6 6 5 5 4 5 6 7 6 5 5 3 6 5 8 7 8 6 3 3 3 3 4 4 3 3 3 3 4 4 3 3 3 3 6 10 16 17
4 5 5 6 7 nan 6 6 4 3 4 4 5 8 12 15 17 13 13 12 6 8 8 5 10 10 5 4 5 7 8 6 4 5 4 2 1 1 1 1 2 2 2 3 3 4 4 4 5 5 4 4 4 6 8 8 7 6 6 6 6 6 5 5 7 7 8 8 7 7 5 6 7 9 10 11 7 4 4 6 5 5 4 4 4 4 4 4 4 4 5 3 3 4 5 5 5
6 7 6 6 nan nan 5 5 4 6 3 2 2 1 6 9 15 15 15 11 5 7 9 8 8 9 5 3 11 12 9 5 4 5 4 1 1 3 3 3 3 4 4 5 5 4 4 3 4 4 4 3 3 5 7 8 8 6 6 5 6 5 5 7 8 9 9 10 10 8 10 10 11 14 14 13 10 9 6 6 6 6 5 5 4 5 5 4 4 6 6 6 4 5 4 4 4
9 5 6 7 nan nan nan 4 6 3 6 7 6 5 5 8 10 13 12 15 11 8 8 8 8 7 4 8 12 13 8 6 6 6 3 2 2 2 2 3 4 4 3 5 6 5 3 4 3 4 5 4 4 6 8 9 8 7 9 7 9 7 8 7 9 11 12 13 12 12 13 14 14 16 15 13 13 12 9 6 7 6 6 6 5 6 6 5 4 5 6 6 5 6 8 10 12
6 9 8 6 nan nan 2 1 2 4 3 8 5 5 2 6 9 11 9 10 7 6 8 7 9 7 7 7 13 14 9 6 6 6 6 6 4 5 3 3 5 4 4 4 6 5 4 4 4 4 5 5 4 5 7 9 9 8 9 8 9 9 8 9 11 12 14 13 14 14 14 14 15 15 15 13 12 10 9 6 5 6 6 6 6 6 7 7 5 6 6 8 8 9 10 11 11
6 8 7 5 4 nan 3 3 4 1 11 7 4 6 6 5 12 10 7 6 5 0 2 3 3 5 6 7 10 12 9 6 5 5 6 5 5 5 5 5 4 6 5 5 5 6 5 4 4 3 5 5 5 6 7 8 9 9 9 9 9 10 10 11 11 12 13 13 13 14 13 13 14 15 13 11 12 14 11 8 7 9 8 7 8 12 10 7 7 6 8 10 11 12 12 12 11
10 8 5 6 nan nan 5 3 2 4 8 7 3 4 3 6 9 8 3 5 8 7 5 7 10 10 10 9 9 10 10 7 5 5 4 4 3 3 3 3 4 5 6 5 6 7 5 5 4 4 5 5 5 6 6 8 9 8 9 9 9 10 11 12 12 13 13 12 12 12 11 11 11 12 13 14 13 12 11 11 12 11 12 13 11 11 12 12 11 12 13 13 13 13 12 12 12
14 6 7 10 11 nan 6 3 5 7 5 4 3 8 9 8 11 9 2 3 6 6 4 1 7 12 15 13 9 8 10 8 6 6 7 6 6 2 2 3 5 7 6 6 6 6 6 5 5 5 5 6 6 6 6 7 7 8 8 8 9 11 11 12 13 13 13 12 12 11 10 9 9 10 12 12 13 12 11 12 12 11 12 12 13 12 12 12 13 14 14 14 15 14 13 14 14
nan nan nan nan 8 8 8 5 6 10 6 4 7 6 2 7 10 9 9 8 9 3 2 5 6 10 13 13 11 8 9 9 9 8 8 6 4 2 2 2 2 5 7 7 6 6 7 6 5 5 4 6 6 7 7 8 8 8 8 9 9 11 12 12 13 13 12 11 11 11 9 8 8 8 9 11 12 12 11 12 12 12 12 12 13 11 11 13 14 14 14 15 16 15 14 14 14
nan nan nan nan nan nan 5 5 6 7 10 6 2 2 6 6 7 11 10 11 6 6 1 7 7 7 10 12 11 9 8 8 8 7 7 6 5 3 2 2 3 6 7 6 6 6 7 7 5 6 5 5 7 7 7 8 9 8 9 9 11 10 11 12 12 12 11 11 11 10 9 9 8 8 8 9 11 11 11 12 12 12 12 13 13 11 12 13 15 15 15 16 16 16 17 16 15
nan nan nan nan nan nan 5 7 8 10 7 5 2 7 13 13 11 7 10 6 4 3 1 7 9 8 7 9 12 10 8 7 7 6 4 2 2 1 2 2 3 5 6 6 6 6 7 7 5 5 6 6 7 8 8 9 9 9 10 10 11 11 12 11 11 10 10 11 11 10 10 10 9 8 7 8 9 10 11 12 13 13 13 13 12 13 13 15 15 15 16 17 17 17 18 18 17
nan nan nan nan nan nan 6 10 10 11 10 7 1 10 12 16 12 11 8 4 4 3 2 8 9 9 9 9 11 11 10 9 7 8 7 3 1 1 0 2 2 3 7 6 6 7 7 6 5 5 6 6 7 8 9 9 10 10 11 11 12 12 12 11 10 11 11 10 10 11 11 11 10 9 7 8 8 9 10 12 13 14 14 14 13 15 15 14 16 16 18 18 18 17 18 19 18
nan nan nan nan nan nan 6 11 9 12 12 8 1 6 8 11 9 13 8 4 4 2 5 7 9 10 9 8 8 8 10 11 10 6 5 3 1 1 1 2 2 4 6 6 7 7 7 6 5 5 7 7 8 9 10 10 10 11 12 11 12 12 12 11 11 10 11 11 11 11 11 11 10 9 8 8 10 10 11 12 13 14 15 16 15 16 15 15 15 17 18 19 19 19 18 19 18
nan nan nan nan 14 8 11 13 12 14 13 9 9 10 12 10 14 13 6 3 3 3 6 7 7 9 8 8 8 7 7 8 7 8 10 9 4 1 0 1 2 2 4 6 7 7 6 6 5 5 7 8 9 10 10 10 11 11 12 11 12 12 11 11 11 10 11 11 11 12 12 12 11 10 9 10 11 11 12 13 14 14 16 16 17 17 16 15 16 17 17 18 18 18 18 18 18
nan nan nan 13 12 14 12 11 10 12 15 13 13 15 14 12 12 12 3 2 3 3 5 7 8 8 7 6 6 6 7 8 9 8 9 7 3 1 1 1 1 2 7 7 7 6 6 6 6 6 7 9 9 10 11 11 11 11 12 12 11 11 12 11 11 11 10 11 11 12 12 12 12 11 11 11 12 12 12 14 15 16 17 17 17 17 16 14 14 14 15 15 16 16 17 18 18
nan nan nan 12 12 10 8 13 12 14 15 14 10 12 nan 13 13 13 1 2 1 3 4 5 6 8 7 6 5 7 6 8 10 9 8 7 5 2 0 2 1 2 5 9 7 7 7 8 9 8 8 9 10 10 11 11 11 12 12 11 11 10 11 11 12 10 10 11 11 12 12 13 12 12 11 11 12 12 13 14 16 18 18 17 17 16 15 15 14 13 15 15 16 16 17 17 17
nan nan nan 11 11 11 8 12 12 15 15 11 15 15 nan nan 11 10 4 2 1 4 4 5 6 8 7 6 4 7 8 9 11 10 9 8 6 2 1 3 1 1 5 8 7 7 7 8 9 10 8 9 10 11 11 11 11 11 11 11 11 10 11 11 11 10 10 10 11 11 12 13 12 13 12 11 12 13 14 15 17 18 17 16 16 16 16 15 14 13 14 15 15 16 17 17 17
nan nan nan nan 12 nan 13 15 10 13 17 12 18 19 16 nan 11 9 6 4 3 3 4 3 6 8 8 7 5 7 8 9 9 10 10 10 9 4 2 1 1 1 2 6 7 7 8 9 10 10 9 9 11 11 11 11 10 10 11 11 10 10 10 11 11 11 10 11 11 11 12 14 12 13 13 12 12 14 14 16 17 17 16 16 15 16 16 15 14 14 14 15 16 17 17 17 16
nan nan nan nan nan nan 17 15 10 16 19 17 14 16 nan nan 13 9 6 4 3 3 5 4 5 9 8 8 nan 6 6 7 7 9 10 10 10 7 3 2 1 2 1 5 6 7 9 10 11 10 9 9 10 11 11 11 10 9 9 10 10 9 9 11 11 11 11 11 11 12 12 14 12 13 13 13 13 14 15 16 17 16 15 15 15 15 16 16 15 14 14 15 16 17 17 18 18
nan nan nan nan nan nan 19 20 11 12 14 16 16 20 18 19 17 11 7 5 4 4 6 6 5 5 6 7 7 7 6 6 8 9 10 11 9 9 6 3 2 2 1 3 5 5 7 12 13 12 11 10 10 11 11 10 10 8 8 9 9 9 10 11 11 11 11 11 11 12 12 13 12 13 13 14 14 15 16 16 16 15 15 15 15 15 15 15 16 16 15 16 15 16 17 18 19
nan nan nan nan nan nan 20 19 12 13 13 13 14 16 19 20 19 13 8 7 5 4 4 6 5 4 5 6 7 8 7 8 10 9 11 12 12 10 7 4 1 2 1 2 5 6 8 12 15 14 12 11 10 10 10 9 8 8 8 7 8 9 10 11 10 11 11 10 11 11 11 13 12 12 13 14 14 16 15 16 16 16 15 15 15 16 15 15 15 15 15 16 16 16 17 18 19
nan nan nan nan nan nan nan 19 18 11 12 12 13 13 15 16 18 16 13 9 7 8 7 5 5 5 3 5 5 6 7 9 8 nan nan 11 11 10 7 4 1 1 1 3 5 6 7 12 15 15 13 11 11 10 10 9 8 8 7 8 8 10 10 10 11 11 10 10 11 10 11 12 12 12 13 13 14 15 15 16 15 15 15 14 14 15 16 15 15 15 16 16 17 18 18 18 18
nan nan nan nan nan nan nan nan nan 12 16 11 10 11 13 16 16 14 14 15 14 11 8 7 6 6 4 4 4 5 6 9 8 nan nan 12 12 11 8 5 1 1 1 2 6 6 6 10 13 13 13 11 11 10 10 9 9 9 9 7 8 9 9 10 11 11 11 11 10 10 10 11 11 11 12 12 14 16 16 15 15 15 15 15 15 16 16 15 14 14 15 16 17 17 19 17 17
nan nan nan nan nan nan nan nan nan 17 15 16 13 15 16 16 17 15 16 16 13 11 10 9 7 7 6 5 4 5 6 3 6 nan nan nan 10 11 8 4 1 2 2 3 5 5 6 9 12 13 13 12 12 11 10 10 9 9 8 8 8 8 8 9 10 10 10 10 9 9 10 10 10 10 10 10 12 14 14 15 15 15 15 15 16 16 16 16 15 14 14 16 16 15 17 16 15
nan nan nan nan nan nan nan nan nan nan 17 23 21 14 16 14 12 14 12 11 12 11 9 9 7 6 5 5 4 3 3 5 5 nan nan nan 12 11 8 5 3 2 2 2 3 7 7 8 12 13 13 11 11 11 9 8 8 8 7 8 7 8 9 9 10 9 8 8 9 9 10 9 9 9 9 9 10 12 13 14 15 15 15 15 16 18 17 18 16 15 14 14 17 14 15 15 12
nan nan nan nan nan nan nan nan nan nan 22 22 nan 14 16 nan nan 11 10 9 11 12 12 15 13 7 5 7 6 4 5 4 6 7 nan nan 10 9 9 6 4 2 1 1 1 4 7 9 12 13 12 10 10 10 8 7 7 7 8 7 6 6 7 8 9 9 8 7 9 9 10 9 9 9 8 9 10 11 11 13 13 14 14 14 13 15 16 17 15 14 13 13 12 15 14 14 11
nan nan nan nan nan nan nan nan nan nan nan nan nan nan nan nan nan 15 11 9 11 12 13 14 16 13 8 6 7 6 6 4 4 6 nan nan 9 9 10 8 5 3 2 1 1 5 9 7 11 11 11 9 8 8 7 6 6 7 8 10 9 10 11 8 8 9 8 8 9 9 10 9 9 9 9 9 9 10 11 11 11 12 11 11 11 11 12 14 13 12 11 11 10 10 12 12 11
nan nan nan nan nan nan nan nan nan nan nan nan nan nan nan nan nan 11 15 13 9 10 6 6 10 12 9 6 7 6 7 5 5 6 7 8 10 10 11 9 6 4 3 1 1 2 6 9 11 13 12 9 6 6 6 5 5 6 7 8 7 8 8 6 6 7 7 7 9 10 11 10 9 10 10 9 10 10 11 11 10 9 9 9 9 9 9 9 10 10 9 9 10 10 9 8 10
nan nan nan nan nan nan nan nan nan nan nan nan nan nan nan 24 19 17 15 10 7 11 3 1 7 10 8 7 6 6 6 6 4 2 3 7 10 11 11 9 7 5 3 2 1 2 4 7 9 12 12 10 7 7 7 7 7 8 6 6 5 5 5 7 6 6 5 7 8 8 10 10 9 9 10 9 10 10 10 10 10 9 8 8 8 7 7 8 7 8 8 8 9 8 7 8 9
nan nan nan nan nan nan nan nan nan nan nan nan nan nan nan nan nan 18 16 12 9 8 5 1 4 8 8 7 6 5 5 5 4 3 2 5 7 9 10 8 6 6 3 2 1 1 2 5 8 11 13 10 8 7 7 8 7 7 7 nan 6 6 5 5 4 5 6 6 6 7 8 10 9 9 9 9 9 9 9 9 8 8 7 7 7 6 6 6 6 7 6 7 8 7 5 5 8
nan nan nan nan nan nan nan nan nan nan nan nan nan nan nan nan 23 22 17 13 8 2 2 3 4 6 8 8 6 5 4 4 4 2 1 2 5 6 6 6 7 6 3 2 2 2 4 6 8 11 12 11 9 6 6 8 8 7 6 nan nan 8 6 5 5 5 5 5 5 7 7 8 8 9 9 8 8 8 8 7 6 6 5 5 6 5 5 5 4 5 5 5 6 7 6 6 6
nan nan nan nan nan nan nan nan nan nan nan nan nan nan nan nan nan 24 19 10 2 4 6 6 4 4 6 7 7 6 4 3 4 4 2 2 3 4 6 6 7 7 3 2 4 4 3 5 7 9 11 12 10 7 6 6 6 7 6 nan nan nan 8 8 6 4 4 5 4 5 6 7 7 8 8 8 7 7 6 5 5 4 4 3 4 4 4 4 4 4 4 4 4 5 7 6 5
nan nan nan nan nan nan nan nan nan nan nan nan nan nan nan nan nan 20 16 9 5 6 7 7 5 4 6 8 8 6 5 4 3 2 2 2 3 5 6 9 10 7 4 2 3 3 3 3 4 6 9 13 11 7 6 4 5 6 6 5 nan nan nan nan 7 6 6 6 5 6 6 7 6 7 7 7 7 6 5 4 4 4 3 3 3 3 3 4 4 4 4 4 3 4 5 7 8
nan nan nan nan nan nan nan nan nan nan nan nan nan nan nan nan nan nan 28 33 30 22 13 7 7 7 6 8 8 7 5 4 3 2 2 2 3 4 6 8 9 9 7 4 2 4 4 3 4 5 10 11 11 8 6 4 4 5 6 5 nan nan nan nan 5 4 5 4 5 5 7 9 8 8 8 8 8 6 5 5 4 3 4 3 4 4 4 4 5 5 4 4 5 4 5 6 7
nan nan nan nan nan nan nan nan nan nan nan nan nan nan nan nan nan nan nan nan nan nan 24 21 16 11 9 8 8 7 6 5 5 3 1 2 3 4 5 6 6 7 7 5 3 4 5 5 4 4 7 11 11 9 6 4 4 4 4 4 5 nan nan nan nan 5 5 4 5 6 8 8 10 10 9 9 8 5 5 5 4 4 4 5 4 4 5 4 4 4 4 4 5 4 4 5 6
nan nan nan nan nan nan nan nan nan nan nan nan nan nan nan nan nan nan nan nan nan nan nan nan 17 16 14 12 9 9 8 6 7 6 3 1 2 2 3 3 4 5 6 5 2 3 7 8 7 6 7 10 13 11 8 6 4 4 4 5 6 7 nan nan nan 5 4 5 5 5 6 7 7 7 7 6 6 5 5 6 6 6 6 5 4 4 4 4 3 4 3 3 4 5 4 4 6
nan nan nan nan nan nan nan nan nan nan nan nan nan nan nan nan nan nan nan nan nan nan nan nan nan 17 13 15 14 11 10 9 8 8 6 2 0 1 0 2 2 2 4 5 3 1 5 7 8 7 9 11 13 12 11 8 7 6 6 5 6 7 nan nan nan nan 5 4 5 5 5 6 6 5 4 5 5 5 5 6 6 6 6 5 4 3 4 4 4 4 4 4 5 4 4 4 5
nan nan nan nan nan nan nan nan nan nan nan nan nan nan nan nan nan nan nan nan nan nan nan nan nan 33 19 12 8 7 8 7 6 6 5 4 3 2 2 0 2 2 5 5 6 3 2 6 8 8 8 10 12 12 12 11 10 9 6 5 5 6 7 nan nan nan nan 6 6 5 5 5 4 5 5 5 5 4 5 5 5 6 5 4 4 3 3 4 4 4 4 4 5 5 5 4 5
nan nan nan nan nan nan nan nan nan nan nan nan nan nan nan nan nan nan nan nan nan nan nan nan nan 35 31 18 8 6 8 8 7 7 6 6 6 5 3 0 1 4 5 6 7 6 3 4 8 9 10 12 12 12 12 13 12 11 7 6 7 7 6 nan nan nan nan nan 8 7 7 5 5 6 6 6 4 3 4 5 5 5 4 4 4 3 3 4 4 4 4 4 6 6 5 5 6
nan nan nan nan nan nan nan nan nan nan nan nan nan nan nan nan nan nan nan nan nan nan nan nan nan nan nan 30 23 14 9 9 9 9 11 10 9 6 5 4 1 4 7 7 7 7 6 3 6 8 9 10 12 14 14 14 13 12 10 8 7 6 5 nan nan nan nan nan nan nan 9 9 6 7 7 7 5 3 3 4 4 5 4 4 4 4 4 4 4 5 5 5 6 6 6 7 7
nan nan nan nan nan nan nan nan nan nan nan nan nan nan nan nan nan nan nan nan nan nan nan nan 48 45 nan nan 31 25 14 10 8 6 6 8 11 10 8 6 3 1 4 7 8 9 8 5 4 6 7 9 11 15 15 16 15 14 13 10 8 7 7 nan nan nan nan nan nan nan nan 7 9 10 9 8 6 4 4 4 4 4 4 4 5 5 5 5 5 6 6 7 7 6 7 7 6
nan nan nan nan nan nan nan nan nan nan nan nan nan nan nan nan nan nan nan nan nan nan nan nan 46 43 41 nan nan nan 19 8 6 5 3 3 6 6 6 6 4 3 3 5 8 9 10 9 5 5 10 13 13 13 14 15 15 16 15 14 13 11 9 nan nan nan nan nan nan nan nan nan 7 10 9 8 7 6 5 4 4 4 4 4 4 6 6 6 7 7 7 8 8 7 8 8 7
nan nan nan nan nan nan nan nan nan nan nan nan nan nan nan nan nan nan nan nan nan nan nan nan 44 45 42 42 nan nan nan 13 10 7 5 3 2 4 5 7 8 7 7 7 8 8 8 8 7 4 6 9 11 12 15 16 17 16 15 14 13 12 10 nan nan nan nan nan nan nan nan nan nan 10 10 9 7 6 6 6 6 6 4 4 5 6 7 7 7 8 8 8 8 8 8 9 8
nan nan nan nan nan nan nan nan nan nan nan nan nan nan nan nan nan nan nan nan nan nan nan nan 45 46 46 44 nan nan nan 35 20 18 20 15 13 11 10 11 12 11 9 7 7 8 7 7 7 6 4 7 10 12 14 16 19 18 16 15 15 14 13 nan nan nan nan nan nan nan nan nan nan nan 10 8 7 8 7 6 7 7 6 5 6 6 7 8 8 9 9 9 8 8 8 9 9
Wind_Direction
325 nan nan nan nan nan 325 nan 352 321 nan 320 nan 101 124 139 126 131 143 131 140 146 158 218 282 73 86 69 nan 41 90 nan nan nan nan nan 64 12 11 10 10 17 33 62 64 43 17 19 5 342 329 326 330 333 334 330 323 322 324 321 326 302 240 216 223 240 22 20 1 356 338 281 272 279 302 306 311 312 309 308 295 295 290 291 294 298 320 321 329 342 341 343 334 328 307 318 348
269 nan nan nan nan 344 331 326 nan 320 nan nan nan 118 124 140 130 133 134 129 136 147 151 208 211 200 163 314 0 14 113 153 105 71 71 48 42 60 23 11 13 9 36 53 57 51 43 53 19 343 335 336 341 343 339 334 334 341 344 334 236 205 198 190 195 236 18 5 342 348 347 319 306 306 316 317 318 314 307 300 307 311 298 280 281 306 302 304 318 336 336 340 343 335 313 324 25
nan nan nan nan nan 334 nan 328 341 nan nan nan nan nan 130 124 124 130 140 140 151 160 177 226 223 131 46 39 78 84 64 142 43 53 39 16 354 54 35 19 21 14 24 51 49 40 52 51 16 348 343 345 351 347 346 347 352 359 6 40 167 189 175 153 133 324 327 324 332 353 350 344 325 330 342 328 324 317 303 290 283 287 288 286 305 321 317 308 312 320 331 345 347 334 308 313 314
nan nan nan nan nan 340 325 338 349 344 341 nan 128 125 127 129 127 131 147 149 144 173 149 127 137 99 70 18 17 332 9 7 51 19 22 36 70 29 37 24 25 27 37 49 48 47 50 34 23 358 348 347 350 346 352 3 11 21 26 37 61 67 66 74 28 330 292 321 346 350 355 338 333 347 344 328 312 301 296 295 306 310 307 297 290 311 311 319 319 330 332 329 324 313 305 310 344
nan nan nan nan 332 324 nan 339 354 349 359 nan 130 131 130 132 139 143 155 147 143 141 153 125 149 129 81 17 47 35 49 323 351 65 39 87 38 18 28 32 32 33 33 43 52 52 47 17 23 354 342 339 346 350 358 11 29 42 43 45 43 49 53 57 51 310 323 351 352 8 0 337 349 341 320 314 302 309 304 311 310 312 304 311 329 305 302 307 312 309 309 325 322 312 309 320 343
nan nan nan 14 322 345 341 nan nan 12 28 106 128 136 138 138 137 153 159 156 144 152 144 150 103 58 117 129 102 55 0 17 7 64 36 32 11 12 15 37 36 35 33 54 54 55 54 23 6 343 338 342 353 356 4 18 34 44 47 49 49 50 50 54 41 356 12 21 13 357 351 320 300 293 309 300 305 321 318 310 323 326 324 310 327 312 291 279 273 287 305 322 316 315 316 319 338
nan nan 31 4 2 1 343 346 nan nan 64 105 138 144 140 140 151 165 157 159 143 143 130 123 302 291 201 90 160 92 76 21 0 44 80 336 1 19 11 34 33 28 39 48 58 55 41 10 351 340 342 354 1 3 7 21 35 45 49 53 54 55 55 46 30 13 25 22 4 345 322 304 290 288 307 326 327 323 330 333 331 345 339 347 317 300 269 248 262 287 295 309 328 320 319 326 345
nan 35 14 331 5 334 340 348 31 17 114 142 160 144 148 141 137 148 133 135 115 119 124 60 94 237 155 108 59 67 100 91 307 322 336 319 2 31 15 24 18 18 19 56 82 82 18 354 354 351 354 1 8 11 13 26 38 48 49 52 54 56 52 44 30 25 20 15 359 326 299 282 278 327 336 354 360 321 317 333 333 353 348 320 317 305 289 298 295 284 296 339 339 330 319 322 357
232 325 11 11 335 336 0 13 nan 357 130 169 154 149 148 140 132 139 155 148 148 139 110 101 88 184 35 308 79 62 94 348 310 338 348 317 2 38 42 23 14 9 9 39 86 82 64 0 353 353 357 18 14 17 21 29 39 47 48 48 49 51 45 50 39 30 28 15 354 316 301 272 282 348 7 45 26 350 343 340 13 347 336 317 309 294 298 291 306 308 302 337 356 344 331 345 350
285 22 347 351 338 334 nan nan 19 290 nan 152 151 148 145 138 140 143 153 155 140 122 138 129 130 339 341 323 44 66 39 345 331 343 353 323 9 47 31 29 20 355 356 14 88 89 81 2 348 1 13 18 20 24 28 32 39 44 47 46 48 40 42 44 42 42 41 23 340 292 259 241 213 106 50 68 72 43 32 22 7 351 319 326 163 128 168 295 313 302 308 306 108 76 340 348 338
266 348 317 351 344 nan nan 16 358 228 153 145 170 153 147 143 148 154 147 164 142 137 129 154 211 321 359 290 125 84 12 346 343 350 352 336 21 35 37 44 38 10 353 349 72 125 93 53 349 7 21 17 26 32 36 39 41 45 42 42 40 41 43 39 44 49 59 38 299 264 246 282 39 71 75 73 94 59 35 16 15 0 29 68 99 105 114 105 94 288 308 334 17 83 43 350 326
190 261 225 309 29 16 25 nan 62 90 134 118 159 148 144 151 154 156 159 193 139 135 109 101 87 329 257 302 97 47 2 359 352 343 339 355 43 38 32 60 53 33 354 345 198 140 109 84 59 19 15 23 32 39 46 47 46 44 36 37 33 35 31 30 31 53 59 55 23 284 263 133 80 75 76 61 55 45 25 16 25 59 66 80 86 97 110 102 81 355 324 332 347 27 76 97 196
152 230 268 194 53 12 38 45 62 33 100 128 146 147 152 153 147 154 157 165 154 158 104 119 344 91 133 264 156 21 359 17 355 337 332 23 49 55 49 50 64 46 15 35 203 164 118 110 106 98 61 27 41 45 53 52 47 41 32 34 37 36 27 36 40 53 62 56 60 344 320 67 80 68 73 85 74 72 43 45 54 61 73 78 84 84 99 107 124 102 348 337 329 352 16 111 150
144 204 254 161 93 50 49 51 68 85 106 108 145 152 151 158 159 157 169 173 137 138 135 341 88 356 267 276 323 53 38 19 351 332 331 6 58 55 26 59 34 31 48 132 175 158 144 137 137 122 106 117 122 85 63 56 50 39 37 38 36 38 31 46 51 56 59 59 65 53 356 41 45 60 81 92 89 70 94 92 61 69 79 84 92 101 118 113 104 115 105 0 352 348 346 3 24
138 200 206 141 107 82 58 59 60 82 92 97 132 157 158 167 167 168 161 190 134 130 152 158 55 92 37 333 351 31 17 11 349 326 312 352 22 36 37 82 75 70 78 129 156 163 155 143 150 140 130 135 129 126 116 89 56 50 46 43 48 45 41 54 60 64 61 60 62 75 54 77 91 108 93 83 87 121 115 99 88 86 88 100 109 115 103 109 112 111 105 123 74 13 0 0 4
191 199 181 133 106 nan 78 62 73 77 69 70 126 161 192 179 163 165 158 142 130 137 148 126 120 114 11 345 329 334 341 359 344 308 303 314 167 149 129 111 108 105 115 148 148 147 154 155 154 146 126 125 128 129 120 117 80 55 61 56 54 55 56 64 68 66 66 66 70 78 96 111 113 96 114 121 125 129 126 107 97 92 95 102 117 118 112 118 113 111 118 123 95 80 40 18 355
210 205 164 151 nan nan 80 57 34 64 50 35 39 113 201 195 167 163 148 154 184 145 153 142 126 124 5 311 321 319 333 345 318 307 306 342 112 127 133 130 119 115 127 146 136 141 155 150 149 137 120 123 140 129 123 115 102 79 83 77 74 72 79 79 72 71 77 86 89 104 133 124 114 118 113 113 115 110 106 100 99 100 99 108 115 112 114 115 117 126 133 134 143 137 151 129 48
216 205 191 146 nan nan nan 32 30 58 350 3 22 56 271 232 172 163 163 175 165 165 168 153 168 193 224 299 316 324 328 326 334 332 352 17 80 88 90 96 95 68 107 136 136 135 139 122 121 133 127 135 145 134 122 118 116 119 136 119 114 106 99 108 116 117 109 113 105 116 123 122 119 115 115 116 118 116 112 113 112 103 105 109 110 114 114 114 106 96 116 126 130 115 143 113 115
210 215 210 156 nan nan 3 23 333 331 9 356 20 55 36 190 188 143 158 157 170 192 168 199 207 222 258 298 331 330 325 338 348 358 360 11 33 15 43 85 94 88 90 126 125 107 107 114 122 132 124 125 148 141 129 125 131 127 128 127 122 125 121 123 122 118 118 114 112 119 122 122 121 117 112 110 114 124 117 124 113 107 102 105 112 117 118 114 102 99 122 131 134 135 111 107 111
229 207 189 159 132 nan 110 4 5 214 312 333 1 64 61 160 163 136 141 146 151 12 294 236 265 303 304 328 344 332 325 344 359 7 15 28 38 19 20 31 77 93 104 113 113 105 106 109 120 121 109 120 146 143 137 128 128 127 128 131 127 127 128 125 124 118 116 114 114 115 116 118 122 121 114 123 126 128 129 145 154 137 133 126 141 122 121 112 118 116 122 125 115 105 102 104 102
226 227 192 171 nan nan 173 256 322 283 310 325 15 65 67 118 160 138 174 180 139 119 97 355 343 335 329 339 351 341 331 341 358 14 21 41 65 93 79 75 94 113 117 123 120 100 97 89 104 114 116 126 145 142 132 126 127 127 129 126 126 127 124 125 121 117 113 113 111 108 106 110 115 115 115 118 120 123 126 124 121 117 114 119 125 113 109 109 109 107 106 108 107 106 105 103 101
220 197 177 166 170 nan 175 216 274 284 254 306 4 19 55 162 168 150 84 81 93 81 71 21 345 337 335 337 350 352 336 344 354 11 23 27 20 26 95 142 155 146 128 107 90 95 84 91 88 111 116 133 138 129 120 113 115 117 124 122 125 127 125 122 120 115 111 109 103 99 102 104 109 111 114 118 122 122 127 126 123 119 122 119 114 109 108 106 105 102 104 108 108 104 105 106 109
nan nan nan nan 151 158 193 229 284 293 295 323 13 56 110 141 163 136 94 141 168 171 132 348 350 350 341 331 338 355 347 351 357 10 17 26 26 20 37 84 99 118 120 113 103 101 95 92 98 99 111 137 141 131 131 128 120 122 124 118 121 123 125 121 117 114 110 103 100 95 94 96 100 102 107 115 120 119 124 125 122 122 122 120 113 110 111 108 105 104 103 106 107 108 107 109 110
nan nan nan nan nan nan 191 239 282 280 306 347 96 9 68 126 143 136 112 154 166 174 141 346 336 349 350 338 345 352 354 357 2 12 25 29 24 8 17 37 124 151 136 112 104 107 100 82 98 96 115 128 132 129 132 126 124 124 115 115 125 114 118 118 113 109 105 101 92 93 92 94 88 90 96 108 113 119 121 120 119 121 121 119 114 109 114 111 107 104 104 106 110 110 109 107 107
nan nan nan nan nan nan 207 251 259 270 268 233 81 57 85 103 127 147 127 145 170 181 49 335 332 343 6 347 343 344 349 355 1 6 21 65 73 220 189 159 147 146 119 113 115 110 100 95 84 93 104 121 129 130 129 128 126 129 125 124 120 107 116 112 106 103 98 91 89 86 85 87 89 83 86 99 107 113 115 118 119 117 119 118 113 110 112 113 108 103 103 103 105 109 109 108 105
nan nan nan nan nan nan 234 251 260 272 256 252 130 102 128 126 146 129 148 146 152 177 300 332 333 341 6 5 350 346 347 356 358 2 7 6 41 324 72 125 121 113 129 132 129 124 117 109 85 96 105 121 128 132 133 129 128 128 125 125 115 115 110 106 100 98 89 82 83 83 83 81 79 75 84 99 102 107 111 113 113 114 114 113 109 109 108 106 102 101 101 102 104 106 108 106 104
nan nan nan nan nan nan 248 273 256 262 253 276 255 146 139 133 124 126 146 154 157 212 327 340 343 349 4 11 356 350 347 358 3 355 348 359 41 67 187 154 94 122 152 134 133 131 124 110 104 117 120 111 138 132 133 131 131 130 126 126 117 116 107 101 97 93 86 82 83 80 79 79 80 82 90 97 107 104 107 108 109 109 107 108 107 109 107 101 97 94 99 102 101 102 104 103 103
nan nan nan nan 187 213 245 241 258 253 239 237 214 183 166 147 143 121 123 144 125 306 334 350 353 354 6 5 355 353 358 357 358 1 0 357 7 350 1 86 63 118 142 136 138 142 125 104 108 127 127 128 133 132 129 132 130 129 127 126 118 115 105 101 95 91 85 85 90 81 79 76 81 89 92 101 101 104 106 107 106 105 104 105 105 106 109 103 99 99 100 99 99 100 102 104 104
nan nan nan 177 200 215 231 252 249 242 230 233 228 197 158 139 126 135 134 167 134 310 339 359 358 1 2 6 349 356 6 5 8 13 8 5 356 353 34 122 53 110 155 154 148 138 115 111 126 134 135 134 133 129 130 132 134 132 130 121 116 113 106 102 96 90 87 89 91 84 79 76 82 87 94 97 102 105 108 108 107 102 104 105 104 104 104 104 102 102 103 100 101 102 102 105 105
nan nan nan 190 188 205 223 232 243 229 224 240 220 178 nan 115 124 154 202 202 183 312 354 5 9 4 356 8 351 355 8 16 20 13 0 4 7 4 194 173 109 131 163 163 157 133 136 134 142 148 137 131 128 134 135 133 131 131 129 124 118 115 109 103 97 94 91 92 93 87 82 79 82 88 95 104 110 110 109 105 102 104 107 110 111 109 107 106 104 104 103 105 103 104 105 105 104
nan nan nan 196 197 185 214 223 246 222 217 229 196 178 nan nan 136 163 157 220 356 24 13 1 9 5 352 6 345 357 12 26 21 6 360 4 9 2 225 209 182 168 167 162 148 141 139 136 141 147 138 134 127 130 129 131 132 130 127 123 116 113 111 107 100 97 94 95 97 95 88 84 82 84 94 102 110 110 110 107 105 106 109 111 112 112 110 109 107 106 106 108 109 109 107 105 107
nan nan nan nan 199 nan 197 224 250 230 205 202 197 175 150 nan 157 191 169 183 164 86 50 18 11 8 353 1 346 8 17 27 23 10 2 2 3 2 309 258 263 28 127 156 165 158 138 136 139 144 142 133 126 126 130 128 126 127 126 119 116 109 111 107 102 97 98 100 101 101 93 88 85 86 92 103 110 112 112 110 110 111 112 112 110 110 111 108 111 113 112 112 110 112 113 113 112
nan nan nan nan nan nan 209 211 235 209 219 201 193 179 nan nan 178 209 193 185 158 107 81 67 33 13 358 2 nan 7 10 31 29 15 6 0 4 4 346 295 340 6 157 161 167 163 143 138 135 139 130 127 127 124 130 130 132 126 119 112 108 106 108 107 106 106 106 104 104 103 98 92 91 91 94 101 108 112 114 114 115 114 115 112 110 110 113 114 116 119 119 114 109 109 116 116 115
nan nan nan nan nan nan 209 208 233 210 231 203 186 185 181 179 180 207 200 183 177 128 76 69 67 37 12 360 351 354 3 18 30 21 13 5 3 5 3 349 315 319 84 156 167 164 144 142 139 138 139 137 134 127 127 127 128 126 118 109 109 104 105 111 111 109 106 106 105 101 99 97 99 97 99 102 106 110 114 116 118 120 118 118 116 114 116 117 120 118 115 115 111 110 116 118 117
nan nan nan nan nan nan 214 218 203 215 205 210 195 176 168 181 196 198 201 191 182 148 95 61 49 49 23 12 355 351 353 13 33 25 14 12 6 8 6 7 290 297 137 150 174 176 163 150 146 141 140 136 135 130 131 133 136 132 128 118 111 108 114 115 115 110 108 108 106 102 103 103 105 105 106 107 106 108 114 116 120 119 119 117 118 119 117 115 114 115 115 115 118 115 112 110 114
nan nan nan nan nan nan nan 206 205 237 217 199 196 178 164 165 197 195 199 189 179 171 164 125 68 61 52 26 4 348 348 14 31 nan nan 15 13 10 8 5 320 249 183 164 176 182 171 159 152 148 142 137 143 139 140 143 144 135 130 137 128 119 121 119 117 112 115 109 111 108 105 104 105 107 108 110 109 110 112 112 115 116 115 116 114 111 109 109 105 111 116 118 121 118 113 114 118
nan nan nan nan nan nan nan nan nan 217 213 192 186 163 163 168 197 196 196 195 183 180 159 143 100 80 79 61 23 359 356 13 21 nan nan 21 16 15 9 0 0 241 214 166 178 180 179 162 154 140 143 143 143 143 143 147 147 147 147 130 119 125 124 123 119 120 116 117 116 114 109 107 106 106 108 109 109 109 111 113 113 113 114 112 109 106 109 111 112 112 114 119 121 124 120 120 121
nan nan nan nan nan nan nan nan nan 213 212 186 184 181 167 169 192 197 202 197 178 172 161 144 113 91 87 67 40 15 14 353 12 nan nan nan 29 20 12 11 351 265 183 176 169 174 182 173 153 147 154 149 143 145 149 151 151 141 145 133 135 134 126 114 111 114 116 124 122 119 116 112 108 106 109 109 112 109 112 112 111 112 114 114 115 120 117 118 120 122 120 121 122 121 118 119 117
nan nan nan nan nan nan nan nan nan nan 208 190 208 191 169 168 190 201 208 200 183 173 159 136 123 106 105 100 82 44 2 6 14 nan nan nan 30 25 20 17 18 11 326 10 152 184 185 175 163 158 158 155 149 152 158 148 151 147 136 140 123 138 127 114 110 113 123 125 127 125 123 117 110 110 110 111 113 112 113 116 115 118 117 118 118 121 127 125 125 123 123 121 123 122 117 115 117
nan nan nan nan nan nan nan nan nan nan 214 206 nan 215 186 nan nan 204 202 213 195 182 173 167 150 124 103 73 70 57 33 355 12 30 nan nan 34 29 26 21 24 38 21 30 167 186 188 178 175 167 164 162 159 153 143 151 154 146 140 139 131 138 128 128 137 144 137 144 134 135 132 124 115 116 115 114 118 116 117 115 120 118 116 118 117 119 122 122 123 128 129 128 129 129 131 126 126
nan nan nan nan nan nan nan nan nan nan nan nan nan nan nan nan nan 196 199 215 206 199 191 171 153 139 127 140 134 109 59 22 6 21 nan nan 38 32 28 28 24 47 73 58 145 185 190 189 180 175 174 167 165 148 133 154 166 160 162 168 171 171 169 164 159 149 141 143 153 144 131 130 126 124 125 122 119 114 114 113 110 111 114 117 123 121 119 116 120 127 131 136 130 129 133 133 135
nan nan nan nan nan nan nan nan nan nan nan nan nan nan nan nan nan 196 215 215 192 208 212 157 139 130 135 126 102 104 92 66 24 16 23 30 37 39 37 31 29 57 88 120 137 181 204 199 187 183 181 177 165 145 143 149 150 159 170 175 165 157 156 156 137 130 147 150 142 149 149 141 140 138 138 133 123 121 110 106 105 108 109 115 116 117 120 126 124 127 132 136 137 139 144 153 143
nan nan nan nan nan nan nan nan nan nan nan nan nan nan nan 205 199 197 209 200 193 212 233 146 131 123 115 116 114 101 88 79 71 50 6 20 38 44 41 32 35 56 100 178 178 172 210 212 197 189 184 178 175 163 156 156 167 171 170 158 153 133 124 130 139 144 145 146 160 159 150 152 147 144 141 134 124 117 112 109 106 105 109 110 114 122 119 115 125 133 151 144 140 154 161 154 145
nan nan nan nan nan nan nan nan nan nan nan nan nan nan nan nan nan 207 210 205 206 212 207 194 118 111 97 101 103 105 100 88 71 55 10 20 31 41 40 30 28 49 89 166 163 184 205 216 209 195 185 177 175 185 175 163 170 175 176 nan 156 134 115 119 146 158 162 167 163 153 166 155 152 144 139 128 124 119 115 111 108 110 109 114 115 112 111 129 147 154 151 153 158 153 155 150 145
nan nan nan nan nan nan nan nan nan nan nan nan nan nan nan nan 200 206 231 224 212 161 111 106 94 100 98 89 86 83 85 83 69 80 49 13 26 40 42 30 25 34 71 143 179 191 190 203 211 201 189 179 178 198 196 176 176 175 172 nan nan 141 139 145 178 184 177 175 160 167 170 165 156 144 135 129 125 124 122 115 108 106 109 114 119 127 132 145 142 158 160 165 155 154 150 159 167
nan nan nan nan nan nan nan nan nan nan nan nan nan nan nan nan nan 210 214 222 180 81 88 105 102 88 95 92 85 75 88 104 86 65 54 7 1 17 27 30 27 31 44 156 178 195 199 199 204 206 192 183 184 197 208 199 181 175 173 nan nan nan 162 174 182 180 180 181 168 171 175 176 160 149 138 132 130 127 127 125 117 101 101 127 139 139 150 154 160 156 152 156 167 152 150 148 147
nan nan nan nan nan nan nan nan nan nan nan nan nan nan nan nan nan 204 229 197 110 128 148 141 141 111 95 91 76 80 83 96 110 84 65 14 332 349 1 27 33 21 10 30 158 177 192 195 203 205 193 190 191 195 217 224 192 174 166 169 nan nan nan nan 181 173 185 187 174 178 188 177 170 151 152 144 137 141 134 131 121 111 123 136 144 152 140 144 152 151 163 168 163 148 149 145 147
nan nan nan nan nan nan nan nan nan nan nan nan nan nan nan nan nan nan 181 178 178 169 150 114 98 95 111 116 105 91 92 104 102 88 45 359 301 339 2 26 30 26 15 25 121 169 173 175 193 203 197 194 195 199 211 223 211 182 170 172 nan nan nan nan 166 174 187 186 181 184 190 193 180 173 169 165 158 158 154 139 123 121 123 127 119 131 139 142 152 168 174 163 150 150 158 152 149
nan nan nan nan nan nan nan nan nan nan nan nan nan nan nan nan nan nan nan nan nan nan 175 165 142 132 141 140 124 127 131 125 120 119 94 0 327 327 2 23 37 37 32 25 59 153 173 176 174 189 192 197 197 201 208 224 224 197 171 169 190 nan nan nan nan 179 194 198 199 200 207 194 196 187 175 171 162 158 157 133 126 120 122 119 118 125 126 132 145 160 164 154 153 140 140 144 142
nan nan nan nan nan nan nan nan nan nan nan nan nan nan nan nan nan nan nan nan nan nan nan nan 173 164 161 163 167 163 157 149 142 149 126 54 292 272 355 12 35 44 32 17 24 162 178 180 175 170 180 198 199 198 197 208 215 210 189 180 202 224 nan nan nan 190 192 197 213 213 216 210 205 191 184 158 166 167 151 132 131 125 120 124 123 120 125 127 136 143 151 145 134 134 159 141 132
nan nan nan nan nan nan nan nan nan nan nan nan nan nan nan nan nan nan nan nan nan nan nan nan nan 188 184 182 184 176 177 171 168 162 142 113 313 273 253 9 21 16 7 4 350 235 186 183 187 176 180 190 198 197 195 199 207 211 201 190 210 221 nan nan nan nan 204 209 209 221 221 219 212 197 181 171 179 163 142 139 132 128 124 124 136 144 147 139 138 153 147 133 147 156 148 159 146
nan nan nan nan nan nan nan nan nan nan nan nan nan nan nan nan nan nan nan nan nan nan nan nan nan 193 198 216 207 189 164 157 162 156 147 128 132 157 172 12 345 330 345 352 353 337 214 191 195 188 185 190 195 197 193 195 203 208 204 203 209 224 221 nan nan nan nan 207 214 217 220 222 207 206 199 201 179 168 145 131 133 128 134 136 143 149 154 149 144 146 147 161 147 175 161 157 151
nan nan nan nan nan nan nan nan nan nan nan nan nan nan nan nan nan nan nan nan nan nan nan nan nan 194 195 194 197 188 154 146 145 147 156 148 153 156 149 59 329 331 335 350 350 341 324 216 202 197 192 191 190 195 198 197 199 203 198 195 206 219 227 nan nan nan nan nan 213 209 212 207 208 210 211 210 203 173 148 134 129 135 140 147 148 152 161 152 150 147 149 156 151 162 167 158 171
nan nan nan nan nan nan nan nan nan nan nan nan nan nan nan nan nan nan nan nan nan nan nan nan nan nan nan 188 182 175 161 150 152 156 162 160 161 155 154 161 46 352 342 337 337 326 319 270 217 209 204 200 194 195 197 200 202 198 195 191 193 208 221 nan nan nan nan nan nan nan 209 209 202 205 212 209 212 203 155 137 137 137 154 165 152 165 170 165 164 154 148 146 148 159 151 168 170
nan nan nan nan nan nan nan nan nan nan nan nan nan nan nan nan nan nan nan nan nan nan nan nan 196 194 nan nan 178 175 170 170 169 165 162 164 169 172 168 150 142 71 330 316 312 316 319 312 237 212 210 213 212 202 198 200 203 200 197 190 188 197 208 nan nan nan nan nan nan nan nan 210 208 210 209 208 210 197 177 150 148 150 162 164 178 171 178 174 172 162 161 148 148 145 140 140 157
nan nan nan nan nan nan nan nan nan nan nan nan nan nan nan nan nan nan nan nan nan nan nan nan 197 197 196 nan nan nan 177 171 174 169 131 151 172 174 147 161 187 199 226 268 293 301 331 334 317 220 205 211 215 211 207 204 206 204 198 194 188 193 205 nan nan nan nan nan nan nan nan nan 217 219 213 213 206 198 178 159 163 168 168 180 184 186 184 178 179 166 165 158 152 143 133 127 137
nan nan nan nan nan nan nan nan nan nan nan nan nan nan nan nan nan nan nan nan nan nan nan nan 199 200 199 197 nan nan nan 182 182 169 153 127 159 183 177 174 197 220 218 238 268 303 320 325 335 304 240 223 216 215 214 207 211 208 206 199 194 198 200 nan nan nan nan nan nan nan nan nan nan 226 225 222 210 196 181 163 164 168 165 173 178 187 193 188 179 172 172 165 161 149 133 132 136
nan nan nan nan nan nan nan nan nan nan nan nan nan nan nan nan nan nan nan nan nan nan nan nan 202 201 202 203 nan nan nan 197 192 183 181 180 178 184 193 196 201 209 221 238 253 271 288 321 336 327 281 224 222 223 220 216 213 212 210 203 197 199 202 nan nan nan nan nan nan nan nan nan nan nan 237 229 216 204 192 178 172 164 166 178 188 189 205 200 180 177 174 179 166 155 142 134 134